Location: Peterborough
(44.3091°N, 78.3197°W)
Time: 05:36:53
(UTC-04:00)

A-11 Canister half - Pass Details

Date: 22 March 2023
Orbit: 1513 x 1686 km, 47.2° (Epoch: 04 June)

Event Time Altitude Azimuth Distance (km) Brightness Sun altitude
Exits shadow 02:49:30 74° 33° (NNE) 1,743 9.1 -40.9°
Drops below altitude 10° 02:59:07 10° 90° (E) 3,940 11.4 -40.0°
Sets 03:02:17 0° 92° (E) 4,918 12.0 -39.7°
